Regional Weather Roundup
Issued by NWS

Home | Current Version | Previous Version | Text Only | Print | Product List | Glossary Off
Versions: 1 2 3 4 5 6 7 8 9 10 11 12 13 14 15 16 17 18 19 20 21 22 23 24 25 26 27 28 29 30 31 32 33 34 35 36 37 38 39 40 41 42 43 44 45 46 47 48 49 50

000
ASUS43 KMPX 210201
RWRMN
WEATHER ROUNDUP FOR MINNESOTA
NATIONAL WEATHER SERVICE TWIN CITIES/CHANHASSEN MN
900 PM CDT SUN AUG 20 2017


NOTE: "FAIR" INDICATES FEW OR NO CLOUDS BELOW 12,000 FEET WITH NO
SIGNIFICANT WEATHER AND/OR OBSTRUCTIONS TO VISIBILITY. N/A MEANS
CURRENT SKY AND/OR WEATHER CONDITIONS ARE NOT AVAILABLE.

MNZ060>063-068>070-210300-
   Twin Cities Metro

CITY           SKY/WX    TMP DP  RH WIND       PRES   REMARKS
TWIN CITIES    PTCLDY    75  65  70 NW10      29.99R
ST PAUL        CLOUDY    75  67  76 NW8       29.99R
CRYSTAL        CLEAR     73  62  68 N5        29.98R
BLAINE         MOCLDY    73  66  78 NW6       29.99R
LAKEVILLE      MOCLDY    72  68  88 NW7       29.99R
EDEN PRAIRIE   CLEAR     74  65  73 N7        29.98R
SOUTH ST PAUL  PTCLDY    76  64  67 N8        29.98R
LAKE ELMO      FAIR      72  68  88 NW3       30.00R
$$
MNZ001>005-007-008-013>017-022>024-027-028-210300-
   Northwest Minnesota

CITY           SKY/WX    TMP DP  RH WIND       PRES   REMARKS
BEMIDJI        CLEAR     64  54  68 CALM      30.02R
HALLOCK        CLEAR     63  46  55 SW3       29.98R
ROSEAU         CLEAR     66  48  52 W3        29.98R
WARROAD        CLEAR     61  54  77 CALM      29.98R
CROOKSTON      CLEAR     66  46  48 CALM      30.00S
FOSSTON        CLEAR     59  45  58 CALM      30.02S
DETROIT LAKES  CLEAR     64  52  63 CALM      30.04S
MOORHEAD       CLOUDY    64  54  68 S3        30.02S
PARK RAPIDS    CLEAR     63  57  81 SW3       30.03R
MAHNOMEN       FAIR      63  51  65 SW3       30.02R
$$
MNZ006-009>011-018-025>026-210300-
   North Central Minnesota

CITY           SKY/WX    TMP DP  RH WIND       PRES   REMARKS
BAUDETTE       CLEAR     62  49  62 W6        29.98R
FLAG ISLAND    CLEAR     68  48  49 CALM      29.96R HAZE
INTL FALLS     CLEAR     53  50  89 SW3       29.97R
WASKISH        CLEAR     70  52  52 W7        29.99R
BIG FORK       CLEAR     57  54  88 CALM      30.00R
LONGVILLE      CLEAR     57  55  94 CALM      30.02R
GRAND RAPIDS   CLEAR     59  57  93 CALM      30.03R
CRANE LAKE     CLEAR     55  54  94 CALM      29.99R
ORR            CLEAR     57  52  82 CALM      29.97R
COOK           CLOUDY    59  55  88 CALM      30.00R
WALKER         FAIR      58  56  93 CALM      30.02R
$$
MNZ012-019>021-037-210300-
   Northeast Minnesota

CITY           SKY/WX    TMP DP  RH WIND       PRES   REMARKS
DULUTH         CLOUDY    64  56  75 NW8       30.01R
ELY            CLOUDY    61  54  77 CALM      29.99R
HIBBING        MOCLDY    62  54  74 W5        30.00R
EVELETH        CLOUDY    63  53  68 W5        30.01R
DULUTH HARBOR  CLOUDY    72  61  68 W12       30.00R
TWO HARBORS    PTCLDY    70  57  64 NW5       29.97R
GRAND MARAIS     N/A     67  55  65 CALM      29.92R
$$
MNZ029>031-032-039>041-046>048-054>057-064-210300-
   West Central Minnesota

CITY           SKY/WX    TMP DP  RH WIND       PRES   REMARKS
FERGUS FALLS   CLEAR     64  57  77 CALM      30.03R
WHEATON        CLOUDY    64  59  82 CALM      30.05R
MORRIS         MOCLDY    66  63  88 N7        30.02R
ALEXANDRIA     MOCLDY    64  60  87 N3        30.05R
ELBOW LAKE     FAIR      63  59  87 N5        30.03F
WADENA         PTCLDY    61  55  82 CALM      30.04R
GLENWOOD       PTCLDY    66  63  88 N8        30.02F
APPLETON       PTCLDY    64  61  88 CALM      30.01R
BENSON         CLOUDY    63  59  88 CALM      30.02F
ORTONVILLE     PTCLDY    63  57  82 MISG      30.02R
MADISON        CLOUDY    64  63  94 CALM      30.02R
WILLMAR        FAIR      66  64  94 NW5       30.03S
$$
MNZ033>034-036-042>043-049>051-058-059-210300-
   Central Minnesota

CITY           SKY/WX    TMP DP  RH WIND       PRES   REMARKS
ST CLOUD       PTCLDY    66  61  84 CALM      30.01R
SAUK CENTRE    FAIR      66  59  80 NW7       30.03S
PAYNESVILLE    CLOUDY    64  62  92 CALM      30.02S
AITKIN         PTCLDY    59  57  94 CALM      30.01S
PINE RIVER     CLEAR     57  54  88 MISG      30.06R
BRAINERD       CLEAR     63  60  90 CALM      30.02R
STAPLES        PTCLDY    61  55  82 CALM      30.04R
LONG PRAIRIE   FAIR      63  59  88 CALM      30.04R
LITTLE FALLS   CLOUDY    64  57  77 NW5       30.02S
LITCHFIELD     CLOUDY    70  63  78 NW3       30.02R
BUFFALO        PTCLDY    71  62  73 CALM      30.01S
MAPLE LAKE     PTCLDY    68  63  85 NW3       30.02S
HUTCHINSON     CLEAR     69  65  89 CALM      30.02S
$$
MNZ037-044-045-052-053-210300-
   East Central Minnesota

CITY           SKY/WX    TMP DP  RH WIND       PRES   REMARKS
PRINCETON      CLOUDY    70  64  83 W5        30.02R
MORA           MOCLDY    63  59  88 CALM      30.02S
CAMBRIDGE      PTCLDY    73  61  64 CALM      29.99F
RUSH CITY      PTCLDY    68  61  76 NW5       30.01R
MOOSE LAKE     PTCLDY    64  55  72 NW3       30.00R
HINCKLEY       FAIR      64  59  82 CALM      30.01R
CLOQUET        PTCLDY    64  54  68 CALM      30.02R
MCGREGOR       PTCLDY    63  55  77 CALM      30.02S
$$
MNZ071>073-080-081-089-090-097-098-210300-
   Southwest Minnesota

CITY           SKY/WX    TMP DP  RH WIND       PRES   REMARKS
MONTEVIDEO     CLEAR     63  55  77 CALM      30.02S
GRANITE FALLS  CLOUDY    66  63  89 N5        30.03R
CANBY          MOCLDY    64  60  88 CALM      30.03S
MARSHALL       MOCLDY    65  63  93 CALM      30.02S
REDWOOD FALLS  CLOUDY    69  64  84 NW5       30.00F
OLIVIA         CLOUDY    68  63  83 N3        30.01S
PIPESTONE      PTCLDY    66  61  82 NE5       30.03S
WINDOM         CLOUDY    70  66  88 N8        30.03R
WORTHINGTON    CLOUDY    69  65  86 N6        30.04R
JACKSON        MOCLDY    70  68  94 CALM      30.03R
TRACY          MOCLDY    67  65  91 CALM      30.03S
SLAYTON        MOCLDY    67  60  79 N6        30.04S
$$
MNZ065>067-074>077-082>085-091>093-210300-
   South Central Minnesota

CITY           SKY/WX    TMP DP  RH WIND       PRES   REMARKS
MANKATO        CLOUDY    73  69  87 N5        30.01R
NEW ULM        PTCLDY    72  64  78 N6        30.01R
ST JAMES       CLOUDY    72  66  83 NW5       30.02R
FAIRMONT       MOCLDY    74  71  91 N7        30.01R
GLENCOE        MOCLDY    71  68  92 N3        30.00S
FARIBAULT      LGT RAIN  73  72  94 CALM      30.00R
OWATONNA       PTCLDY    73  72  94 CALM      30.00R
WASECA         CLOUDY    72  70  94 CALM      30.02R
ALBERT LEA     CLEAR     75  72  88 CALM      30.01R
$$
MNZ078>079-086>088-094>096-210300-
   Southeast Minnesota

CITY           SKY/WX    TMP DP  RH WIND       PRES   REMARKS
ROCHESTER      CLEAR     74  69  85 CALM      30.02R
RED WING       PTCLDY    75  70  83 CALM      29.96R
STANTON        CLOUDY    75  71  86 NW6       29.97R
DODGE CENTER   PTCLDY    72  66  83 CALM      30.01R THUNDER
WINONA         MOCLDY    73  72  94 CALM      30.00R
AUSTIN         CLEAR     72  66  83 CALM      30.00S
PRESTON        CLEAR     73  65  77 S5        30.01R
$$
ABBREVIATIONS USED IN REMARKS
   TC - TEMPERATURES IN CELSIUS
  WCI - WIND CHILL INDEX
   HX - HEAT INDEX
  VSB - VISIBILITY
$$




USA.gov is the U.S. government's official web portal to all federal, state and local government web resources and services.